www.pogodaiklimat.ru

Погода и климат >> Архив погоды >> Австралия >> Новый Южный Уэльс >> Милдьюра


ПОГОДА в Милдьюре

  • Прогноз погоды в Милдьюре
  • Монитор погоды в Милдьюре

АРХИВ ПОГОДЫ в Милдьюре

Время (UTC), дата Ветер
(напр.,м/с)
 
Видим.   Явления Облачность Т
(С)
Тd
(С)
f
(%)
Тe
(С)
Тes
(С)
Комфортность P
(гПа)
Po
(гПа)
Тmin
(С)
Tmax
(С)
R
(мм)
R24
(мм)
S
(см)
22 17.03 штиль 0 40 км ясно +22.0 +8.9 43 +23 +26 комфорт 1015.9 1009.9
23 17.03 штиль 0 н/о н/о +25.6 +9.4 36 +26 +26 жарко 1016.2 1010.2
00 18.03 С 2 н/о н/о +29.4 +9.5 29 +29 +29 жарко 1016.1 1010.1
01 18.03 З 3 н/о н/о +31.6 +8.6 24 +31 +31 жарко 1015.8 1009.8 +16.6
02 18.03 З 4 н/о н/о +32.3 +7.9 22 +31 +31 жарко 1015.2 1009.2
03 18.03 З 5 н/о н/о +33.0 +7.1 20 +31 +31 жарко 1014.3 1008.3
04 18.03 Ю 5 40 км 5/0
[]
+33.5 +6.7 19 +32 +32 жарко 1013.4 1007.4
05 18.03 ЮЗ 3 н/о н/о +33.9 +7.0 19 +32 +32 жарко 1012.3 1006.3
06 18.03 ЮЗ 4 н/о н/о +34.1 +6.4 18 +32 +32 жарко 1011.5 1005.6
07 18.03 З 4 н/о н/о +34.3 +6.6 18 +32 +32 жарко 1011.2 1005.3
08 18.03 ЮЗ 4 н/о н/о +33.2 +4.9 17 +31 +31 жарко 1011.3 1005.4
09 18.03 ЮЗ 3 н/о н/о +31.3 +4.9 19 +29 +29 жарко 1011.7 1005.8
10 18.03 Ю 2 н/о н/о +28.9 +4.4 21 +27 +27 жарко 1012.5 1006.5
11 18.03 ЮЗ 3 н/о н/о +28.2 +3.8 21 +27 +27 жарко 1013.2 1007.2
12 18.03 ЮЗ 4 н/о н/о +27.9 +5.5 24 +27 +27 жарко 1013.5 1007.5
13 18.03 Ю 5 н/о н/о +27.2 +5.5 25 +26 +26 жарко 1013.7 1007.7 +34.9
14 18.03 Ю 4 н/о н/о +25.6 +5.2 27 +25 +25 комфорт 1013.5 1007.5
15 18.03 Ю 4 н/о н/о +24.6 +4.4 27 +24 +24 комфорт 1013.4 1007.4
16 18.03 Ю 3 н/о н/о +23.0 +4.0 29 +23 +23 комфорт 1013.2 1007.2
17 18.03 Ю 3 н/о н/о +21.7 +4.7 33 +22 +22 комфорт 1013.1 1007.1
18 18.03 Ю 2 н/о н/о +20.0 +6.4 41 +21 +21 комфорт 1012.9 1006.9
19 18.03 ЮВ 2 н/о н/о +19.6 +9.2 51 +21 +21 комфорт 1012.9 1006.9
20 18.03 В 3 н/о н/о +19.3 +10.6 57 +21 +21 комфорт 1013.3 1007.3
21 18.03 Ю 2 н/о н/о +18.3 +10.2 59 +19 +19 1014.1 1008.1
22 18.03 Ю 3 35 км 6/0
[]
+20.8 +11.4 55 +23 +25 комфорт 1014.5 1008.5
23 18.03 Ю 3 н/о н/о +23.2 +12.5 51 +26 +26 жарко 1014.9 1008.9
00 19.03 ЮВ 2 н/о н/о +25.3 +12.9 46 +27 +27 жарко 1015.0 1009.0
01 19.03 Ю 3 н/о н/о +29.8 +10.4 30 +30 +30 жарко 1014.7 1008.7 +18.0
02 19.03 Ю 3 н/о н/о +31.7 +6.0 20 +30 +30 жарко 1014.1 1008.1
03 19.03 Ю 4 н/о н/о +32.5 +5.9 19 +30 +30 жарко 1013.3 1007.3
04 19.03 ЮЗ 5 40 км 3/0
[]
+33.1 +5.6 18 +31 +37 жарко 1012.3 1006.3
05 19.03 Ю 5 н/о н/о +33.3 +5.8 18 +31 +31 жарко 1011.5 1005.6
06 19.03 ЮВ 2 н/о н/о +33.7 +6.9 19 +32 +32 жарко 1010.9 1005.0
07 19.03 Ю 3 н/о н/о +33.9 +6.3 18 +32 +32 жарко 1010.5 1004.6
08 19.03 ЮЗ 4 н/о н/о +33.0 +4.7 17 +31 +31 жарко 1010.8 1004.9
09 19.03 Ю 3 н/о н/о +30.4 +4.9 20 +29 +29 жарко 1011.2 1005.3
10 19.03 Ю 2 н/о н/о +26.8 +5.7 26 +26 +26 жарко 1012.1 1006.1
11 19.03 ЮВ 2 н/о н/о +24.6 +5.9 30 +24 +24 комфорт 1012.6 1006.6
12 19.03 Ю 2 н/о н/о +23.0 +5.9 33 +23 +23 комфорт 1012.9 1006.9
13 19.03 ЮВ 2 н/о н/о +21.2 +7.4 41 +22 +22 комфорт 1012.9 1006.9 +34.6
14 19.03 Ю 2 н/о н/о +20.4 +6.0 39 +22 +22 комфорт 1012.7 1006.7
15 19.03 Ю 2 н/о н/о +19.6 +5.3 39 +21 +21 комфорт 1012.5 1006.5
16 19.03 Ю 3 н/о н/о +19.6 +5.3 39 +21 +21 комфорт 1012.4 1006.4
17 19.03 Ю 2 н/о н/о +18.2 +5.8 44 +19 +19 1012.2 1006.2
18 19.03 Ю 3 н/о н/о +17.8 +7.2 50 +18 +18 1012.3 1006.3
19 19.03 Ю 2 н/о н/о +16.5 +8.2 58 +17 +17 1012.6 1006.6
20 19.03 Ю 2 н/о н/о +15.4 +8.6 64 +16 +16 1013.2 1007.2
21 19.03 Ю 2 н/о н/о +15.4 +8.9 65 +16 +16 1013.7 1007.7
22 19.03 ЮВ 3 40 км ясно +19.4 +12.7 65 +21 +21 комфорт 1014.6 1008.6
23 19.03 В 3 н/о н/о +23.4 +14.1 56 +27 +27 душно 1015.0 1009.0
00 20.03 В 2 н/о н/о +26.7 +14.1 46 +29 +29 жарко 1015.0 1009.0
01 20.03 ЮВ 3 н/о н/о +30.0 +10.0 29 +30 +30 жарко 1014.6 1008.6 +15.1
02 20.03 В 3 н/о н/о +32.1 +7.7 22 +31 +31 жарко 1014.0 1008.0
03 20.03 Ю 3 н/о н/о +33.4 +5.9 18 +31 +31 жарко 1013.0 1007.0
04 20.03 В 3 40 км 3/0
[]
+33.9 +5.4 17 +32 +40 жарко 1012.0 1006.0
05 20.03 С 2 н/о н/о +33.9 +5.4 17 +32 +32 жарко 1011.2 1005.3
06 20.03 ЮЗ 3 н/о н/о +34.2 +4.8 16 +32 +32 жарко 1010.9 1005.0
07 20.03 Ю 3 н/о н/о +34.2 +5.7 17 +32 +32 жарко 1010.9 1005.0
08 20.03 В 3 н/о н/о +33.0 +7.1 20 +31 +31 жарко 1010.9 1005.0
09 20.03 В 2 н/о н/о +30.0 +8.4 26 +29 +29 жарко 1011.3 1005.4
10 20.03 ЮВ 3 н/о н/о +27.5 +8.9 31 +28 +28 жарко 1011.8 1005.9
11 20.03 ЮВ 4 н/о н/о +26.3 +8.8 33 +27 +27 жарко 1012.4 1006.4
12 20.03 ЮВ 3 н/о н/о +25.2 +8.7 35 +26 +26 жарко 1012.8 1006.8
13 20.03 Ю 3 н/о н/о +24.5 +8.5 36 +25 +25 комфорт 1013.2 1007.2 +35.1
14 20.03 Ю 3 н/о н/о +23.4 +7.1 35 +24 +24 комфорт 1013.4 1007.4
15 20.03 Ю 4 н/о н/о +22.7 +6.9 36 +23 +23 комфорт 1013.2 1007.2
16 20.03 Ю 3 н/о н/о +21.5 +7.7 41 +22 +22 комфорт 1012.8 1006.8
17 20.03 Ю 3 н/о н/о +20.3 +8.9 48 +22 +22 комфорт 1012.8 1006.8
18 20.03 Ю 2 н/о н/о +19.3 +9.8 54 +21 +21 комфорт 1012.8 1006.8
19 20.03 Ю 3 н/о н/о +18.7 +10.8 60 +20 +20 1013.0 1007.0
20 20.03 Ю 3 н/о н/о +18.2 +12.4 69 +19 +19 1013.5 1007.5
21 20.03 Ю 3 н/о н/о +17.9 +13.2 74 +18 +18 1014.2 1008.2
22 20.03 Ю 3 35 км 4/0
[]
+20.2 +13.9 67 +23 +23 комфорт 1014.8 1008.8
23 20.03 ЮВ 4 н/о н/о +22.6 +14.2 59 +26 +26 жарко 1015.3 1009.3
00 21.03 ЮВ 3 н/о н/о +25.0 +14.2 51 +27 +27 жарко 1015.7 1009.7
01 21.03 Ю 3 н/о н/о +27.7 +13.3 41 +29 +29 жарко 1015.3 1009.3 +18.0
02 21.03 Ю 3 н/о н/о +30.4 +10.4 29 +30 +30 жарко 1014.6 1008.6
03 21.03 Ю 4 н/о н/о +31.9 +8.8 24 +31 +31 жарко 1013.8 1007.8
04 21.03 ЮВ 4 35 км 8/0
[]
+32.8 +8.3 22 +31 +37 жарко 1012.9 1006.9
05 21.03 ЮЗ 3 н/о н/о +32.8 +7.6 21 +31 +31 жарко 1012.2 1006.2
06 21.03 В 3 н/о н/о +33.1 +7.9 21 +32 +32 жарко 1011.5 1005.6
07 21.03 ЮВ 4 н/о н/о +32.8 +8.3 22 +31 +31 жарко 1011.3 1005.4
08 21.03 ЮВ 4 н/о н/о +32.0 +8.3 23 +31 +31 жарко 1011.6 1005.7
09 21.03 ЮВ 3 н/о н/о +29.8 +9.9 29 +30 +30 жарко 1012.0 1006.0
10 21.03 ЮВ 3 н/о н/о +27.8 +10.1 33 +28 +28 жарко 1012.5 1006.5
11 21.03 ЮВ 4 н/о н/о +26.9 +10.6 36 +28 +28 жарко 1012.7 1006.7
12 21.03 ЮВ 4 н/о н/о +26.6 +9.9 35 +27 +27 жарко 1012.9 1006.9
13 21.03 ЮВ 4 н/о н/о +25.1 +9.4 37 +26 +26 жарко 1012.9 1006.9 +34.0
14 21.03 ЮВ 4 н/о н/о +25.2 +9.1 36 +26 +26 жарко 1012.6 1006.6
15 21.03 ЮВ 3 н/о н/о +24.3 +8.7 37 +25 +25 комфорт 1012.5 1006.5
16 21.03 ЮВ 3 н/о н/о +23.8 +9.0 39 +25 +25 комфорт 1012.2 1006.2
17 21.03 Ю 3 н/о н/о +22.8 +9.2 42 +24 +24 комфорт 1011.7 1005.8
18 21.03 ЮВ 3 н/о н/о +21.9 +10.7 49 +24 +24 комфорт 1011.8 1005.9
22 21.03 ЮВ 4 35 км 1/0
[]
+22.4 +13.5 57 +25 +27 комфорт 1013.0 1007.0
23 21.03 В 4 н/о н/о +25.9 +12.4 43 +27 +27 жарко 1013.1 1007.1
01 22.03 В 6 н/о н/о +33.2 +7.9 21 +32 +32 жарко 1011.8 1005.9 +20.7
02 22.03 СВ 6 н/о н/о +34.1 +8.0 20 +32 +32 жарко 1011.1 1005.2
03 22.03 СВ 7 н/о н/о +35.5 +7.6 18 +34 +34 очень
жарко
1009.9 1004.0
04 22.03 С 5 35 км 3/0
[]
+35.2 +6.5 17 +33 +38 жарко 1008.9 1003.0
05 22.03 СВ 6 н/о н/о +36.3 +5.5 15 +34 +34 очень
жарко
1008.0 1002.1
06 22.03 СВ 5 н/о н/о +36.8 +5.9 15 +34 +34 очень
жарко
1007.0 1001.1
07 22.03 СВ 4 н/о н/о +36.8 +4.9 14 +34 +34 очень
жарко
1006.8 1000.9
08 22.03 СВ 3 н/о н/о +35.8 +6.1 16 +33 +33 жарко 1006.6 1000.7
09 22.03 В 2 н/о н/о +31.8 +7.5 22 +30 +30 жарко 1006.6 1000.7
10 22.03 В 3 н/о н/о +30.5 +8.3 25 +30 +30 жарко 1007.2 1001.3
11 22.03 В 3 н/о н/о +29.0 +8.1 27 +28 +28 жарко 1007.9 1002.0
12 22.03 СВ 5 н/о н/о +30.5 +7.0 23 +29 +29 жарко 1008.1 1002.2
13 22.03 СВ 5 н/о н/о +29.3 +7.2 25 +28 +28 жарко 1007.7 1001.8 +37.5
14 22.03 СВ 3 н/о н/о +27.2 +7.1 28 +27 +27 жарко 1007.8 1001.9
15 22.03 СВ 3 н/о н/о +25.6 +7.7 32 +26 +26 жарко 1007.3 1001.4
16 22.03 СВ 3 н/о н/о +24.9 +7.1 32 +25 +25 комфорт 1007.1 1001.2
17 22.03 С 2 н/о н/о +23.5 +7.2 35 +24 +24 комфорт 1006.8 1000.9
18 22.03 З 3 н/о н/о +24.8 +8.7 36 +25 +25 комфорт 1006.9 1001.0
19 22.03 СЗ 3 н/о н/о +23.8 +9.4 40 +25 +25 комфорт 1007.2 1001.3
20 22.03 З 3 н/о н/о +23.4 +10.5 44 +25 +25 комфорт 1007.7 1001.8
21 22.03 З 3 н/о н/о +23.4 +13.6 54 +27 +27 душно 1008.0 1002.1
22 22.03 З 3 35 км 8/0
[]
+24.3 +13.5 51 +27 +28 жарко 1008.8 1002.9
23 22.03 З 3 н/о н/о +26.5 +13.9 46 +29 +29 жарко 1009.5 1003.6
00 23.03 ЮЗ 5 н/о н/о +28.7 +11.7 35 +30 +30 жарко 1009.6 1003.7
01 23.03 ЮЗ 4 н/о н/о +30.6 +11.1 30 +31 +31 жарко 1009.5 1003.6 +23.2
02 23.03 З 6 н/о н/о +32.1 +9.6 25 +31 +31 жарко 1009.3 1003.4
03 23.03 З 6 н/о н/о +33.1 +11.0 26 +33 +33 жарко 1008.8 1002.9
04 23.03 З 6 н/о н/о +33.9 +11.1 25 +33 +33 жарко 1008.4 1002.5
05 23.03 З 5 н/о н/о +32.7 +11.3 27 +33 +33 жарко 1008.1 1002.2
06 23.03 З 5 н/о н/о +33.6 +10.2 24 +33 +33 жарко 1008.0 1002.1
07 23.03 З 4 н/о н/о +32.5 +9.3 24 +32 +32 жарко 1007.7 1001.8
08 23.03 ЮЗ 4 н/о н/о +32.0 +8.9 24 +31 +31 жарко 1008.3 1002.4
09 23.03 ЮЗ 5 н/о н/о +29.8 +9.9 29 +30 +30 жарко 1010.3 1004.4
10 23.03 ЮЗ 3 н/о н/о +26.1 +14.2 48 +28 +28 жарко 1012.3 1006.3
11 23.03 З 2 н/о н/о +23.9 +16.2 62 +27 +27 жарко 1012.8 1006.8
12 23.03 З 4 н/о н/о +22.3 +18.1 77 +27 +27 душно 1013.8 1007.8
13 23.03 З 3 н/о в посл. час дождь {туман} н/о +20.5 +18.8 90 +25 +25 комфорт 1013.7 1007.7 +34.4
14 23.03 штиль 0 н/о н/о +20.4 +18.7 90 +24 +24 комфорт 1012.6 1006.6
15 23.03 С 3 н/о н/о +20.2 +18.7 91 +24 +24 комфорт 1012.8 1006.8
16 23.03 С 3 н/о туман местами н/о +19.6 +18.4 93 +22 +22 комфорт 1012.0 1006.0
17 23.03 С 2 н/о н/о +19.3 +18.3 94 +22 +22 комфорт 1011.2 1005.3
18 23.03 СЗ 1 н/о н/о +19.2 +18.2 94 +22 +22 комфорт 1011.4 1005.5
19 23.03 штиль 0 н/о {туман} н/о +19.0 +18.7 98 +21 +21 комфорт 1011.1 1005.2
20 23.03 штиль 0 н/о н/о +19.0 +19.0 100 +21 +21 комфорт 1010.9 1005.0
21 23.03 СВ 2 н/о н/о +19.1 +19.1 100 +22 +22 комфорт 1011.2 1005.3
22 23.03 С 2 35 км 6/0
[]
+20.3 +19.5 95 +25 +26 комфорт 1011.1 1005.2
23 23.03 С 3 н/о н/о +21.3 +19.2 88 +26 +26 душно 1010.9 1005.0
00 24.03 С 4 н/о н/о +22.5 +18.1 76 +28 +28 душно 1011.0 1005.1
01 24.03 С 4 н/о н/о +22.8 +18.1 75 +28 +28 душно 1010.4 1004.5 +19.0
02 24.03 С 4 н/о н/о +23.9 +18.5 72 +28 +28 душно 1010.0 1004.1
03 24.03 С 6 н/о н/о +24.2 +16.7 63 +28 +28 душно 1009.5 1003.6
04 24.03 С 7 н/о н/о +23.7 +17.7 69 +28 +28 душно 1008.7 1002.8
05 24.03 С 7 н/о н/о +23.4 +18.1 72 +29 +29 душно 1008.2 1002.3
06 24.03 С 6 н/о н/о +23.4 +18.5 74 +30 +30 очень
душно
1007.5 1001.6
07 24.03 С 6 н/о н/о +22.8 +18.3 76 +28 +28 душно 1007.3 1001.4
08 24.03 С 6 н/о н/о +22.6 +18.2 76 +28 +28 душно 1007.1 1001.2
09 24.03 СЗ 5 н/о н/о +22.5 +18.1 76 +28 +28 душно 1007.3 1001.4
10 24.03 С 5 н/о н/о +22.8 +17.7 73 +28 +28 душно 1007.3 1001.4
11 24.03 СЗ 7 н/о н/о +22.9 +17.1 70 +28 +28 душно 1007.4 1001.5
12 24.03 С 6 н/о н/о +22.2 +17.8 76 +27 +27 душно 1007.3 1001.4
13 24.03 СЗ 5 н/о н/о +21.6 +18.0 80 +26 +26 душно 1007.2 1001.3 +24.9
14 24.03 СЗ 5 н/о н/о +21.5 +18.1 81 +26 +26 душно 1007.1 1001.2
15 24.03 З 3 н/о н/о +21.7 +14.6 64 +25 +25 комфорт 1007.5 1001.6
16 24.03 З 2 н/о н/о +20.8 +13.7 64 +24 +24 комфорт 1007.3 1001.4
17 24.03 З 4 н/о н/о +20.2 +13.4 65 +22 +22 комфорт 1007.3 1001.4
18 24.03 З 6 н/о н/о +19.5 +11.3 59 +20 +20 1008.0 1002.1
19 24.03 З 4 н/о н/о +19.3 +11.8 62 +21 +21 комфорт 1008.9 1003.0
20 24.03 З 5 н/о н/о +17.2 +11.2 68 +17 +17 1010.1 1004.2
21 24.03 З 4 н/о н/о +17.1 +10.2 64 +17 +17 1011.3 1005.4
22 24.03 З 5 н/о н/о +17.9 +11.0 64 +17 +17 1012.1 1006.1

 

Местоположение метеостанции Милдьюра (Новый Южный Уэльс, Австралия): широта -34.23 долгота 142.08 высота над уровнем моря 53 м.

В архиве по умолчанию представлена погода в Милдьюре за последнюю неделю. Архивные данные за месяц целиком и за предыдущие месяцы, начиная с января 2011 года, Вы можете получить, выбрав интересующий диапазон дат из раскрывающегося списка и нажав кнопку "Ввод!".


*Определитесь, кто Вы:
робот инопланетянин человек

Внимание! Время в таблицах - всемирное. Для получения местного времени необходимо прибавить поправку, которая равна 10 ч.

Смотрите также архив погоды в соседних городах и на ближайших метеорологических станциях:

Погода в Уолпеапе (Виктория, Австралия) (99 км)
Погода в Ренмарке (Южная Австралия, Австралия) (129 км)
Погода в Локстоне (Южная Австралия, Австралия) (138 км)
Погода в Хоптауне (Виктория, Австралия) (168 км)
Погода в Суон-Хилле (Виктория, Австралия) (184 км)
Погода в Ламеру (Южная Австралия, Австралия) (190 км)
Погода в Нхилле (Виктория, Австралия) (237 км)
Погода в Чарльтоне (Виктория, Австралия) (255 км)
Погода в Хее (Новый Южный Уэльс, Австралия) (255 км)
Погода в Брокен-Хилле (Новый Южный Уэльс, Австралия) (255 км)

Пояснения к столбцам:

Ветер - указаны скорость ветра в м/с - средняя за 10 мин, порывы в срок и между сроками (в фигурных скобках) и направление, откуда дует ветер: С - северный, СВ - северо-восточный, В - восточный, ЮВ - юго-восточный, Ю - южный, ЮЗ - юго-западный, З - западный, СЗ - северо-западный.
Видимость - горизонтальная дальность видимости в метрах или километрах. При видимости от 1 до 10 км при отсутствии осадков обычно наблюдается дымка, при ухудшении видимости до 1 км и менее - туман. В сухую погоду видимость может ухудшаться дымом, пылью или мглою.
Явления - указаны атмосферные явления, наблюдавшиеся в срок или в последний час перед сроком; фигурными скобками обозначены явления, наблюдавшиеся между сроками (за 1-3 часа до срока); квадратными скобками обозначены град или гололедные отложения с указанием их диаметра в мм.
Облачность - указаны через наклонную черту общая и нижняя облачность в баллах и высота нижней границы облаков в метрах; квадратными скобками обозначены формы облаков: Ci - перистые, Cs - перисто-слоистые, Cc - перисто-кучевые, Ac - высококучевые, As - высокослоистые, Sc - слоисто-кучевые, Ns - слоисто-дождевые, Cu - кучевые, Cb - кучево-дождевые. Подробнее классификацию облаков см. в Атласе облаков (PDF).
T - Температура воздуха - температура, измеренная на высоте 2 м над землей.
Td - Температура точки росы - температура, при понижении до которой содержащийся в воздухе водяной пар достигнет насыщения.
f - Относительная влажность воздуха - влажноcть воздуха, измеренная на высоте 2 м над землей.
Te - Эффективная температура - температура, которую ощущает одетый по сезону человек в тени. Характеристика душности погоды. При расчете учитывается влияние влажности воздуха и скорости ветра на теплоощущения человека.
Tes - Эффективная температура на солнце - температура, которую ощущает человек, с поправкой на солнечный нагрев. Характеристика знойности погоды. Зависит от высоты солнца над горизонтом, облачности и скорости ветра. Ночью, в пасмурную погоду, а также при ветре 12 м/с и более поправка равна нулю.
P - Атмосферное давление - приведенное к уровню моря атмосферное давление.
Po - Атмосферное давление - измеренное на уровне метеостанции атмосферное давление.
Tmin - Минимальная температура - минимум температуры воздуха на высоте 2 м над землей.
Tmax - Максимальная температура - максимум температуры воздуха на высоте 2 м над землей.
R - Количество осадков - Количество выпавших осадков за период времени, мм. При наведении курсора мыши на число - период времени, за который выпало указанное количество осадков.
R24 - Количество осадков - Количество выпавших осадков за 24 часа, мм.
S - Снежный покров - Высота снежного покрова, см. При наведении курсора мыши на число - состояние снежного покрова и степень покрытия местности в баллах.